Regional Weather Roundup
Issued by NWS

Home | Current Version | Previous Version | Graphics & Text | Print | Product List | Glossary On
Versions: 1 2 3 4 5 6 7 8 9 10 11 12 13 14 15 16 17 18 19 20 21 22 23 24 25 26 27 28 29 30 31 32 33 34 35 36 37 38 39 40 41 42 43 44 45 46 47 48 49 50
000
ASUS43 KBIS 261410
RWRND

NORTH DAKOTA REGIONAL WEATHER ROUNDUP
NATIONAL WEATHER SERVICE BISMARCK ND
900 AM CDT MON SEP 26 2016

NOTE: "FAIR" INDICATES FEW OR NO CLOUDS BELOW 12,000 FEET WITH NO
SIGNIFICANT WEATHER AND/OR OBSTRUCTIONS TO VISIBILITY.


NDZ001>003-009>011-017-261500-
NORTHWEST NORTH DAKOTA

CITY           SKY/WX    TMP DP  RH WIND       PRES   REMARKS
WILLISTON      SUNNY     42  36  79 S7        30.21R
MINOT          SUNNY     49  35  58 W14       30.13R
MINOT AFB      SUNNY     48  35  61 NW17      30.12R
$$

NDZ018>021-031>035-040>046-261500-
SOUTHWEST NORTH DAKOTA

CITY           SKY/WX    TMP DP  RH WIND       PRES   REMARKS
BISMARCK       SUNNY     46  35  65 W10       30.18R
DICKINSON      SUNNY     44  40  85 W9        30.20R
GARRISON         N/A     48  39  71 NW13      30.15S
HETTINGER ARPT SUNNY     45  39  79 CALM      30.24R
$$

NDZ004>008-012>016-024-026-027-054-261500-
NORTHEAST NORTH DAKOTA

CITY           SKY/WX    TMP DP  RH WIND       PRES   REMARKS
GRAND FORKS    MOSUNNY   51  39  63 W20       29.94S
GRND FRKS AFB  SUNNY     51  37  57 NW18G30   29.96R
DEVILS LAKE    SUNNY     47  38  71 W16       30.04R
$$

NDZ022-023-025-028>030-036>039-047>053-261500-
SOUTHEAST NORTH DAKOTA

CITY           SKY/WX    TMP DP  RH WIND       PRES   REMARKS
FARGO          SUNNY     53  37  54 W20       29.99R
JAMESTOWN      SUNNY     49  38  65 W16G24    30.07S
$$




USA.gov is the U.S. government's official web portal to all federal, state and local government web resources and services.